Tracking 31027 objects as of 19-Jul-2025
HD Live streaming from Space Station
objects crossing your sky now

STARLINK-3738

Track STARLINK-3738 now!
10-day predictions
STARLINK-3738 is classified as:


NORAD ID: 52117
Int'l Code: 2022-029AF
Perigee: 546.0 km
Apogee: 547.8 km
Inclination: 53.2 °
Period: 95.4 minutes
Semi major axis: 6917 km
RCS: Unknown
Launch date: March 19, 2022
Source: United States (US)
Launch site: AIR FORCE EASTERN TEST RANGE (AFETR)
Your satellite tracking list
RESURS O1 DEB
Track 1 satellite(s)




NASA's NSSDC Master Catalog

Two Line Element Set (TLE):
1 52117U 22029AF  25199.56707372  .00001175  00000-0  91922-4 0  9995
2 52117  53.2166  50.1347 0001348 119.2690 240.8437 15.08837594185456
Source of the keplerian elements: AFSPC